Vorticity
nan nan nan nan nan nan nan nan nan nan nan nan nan nan nan nan nan nan nan nan nan nan nan nan nan nan nan nan nan nan nan nan nan nan nan nan nan nan nan nan nan nan nan nan nan nan nan nan nan nan nan nan nan nan nan nan nan nan nan nan nan nan nan nan nan nan nan nan nan nan nan nan nan nan nan nan nan nan nan nan nan nan nan nan nan nan nan nan nan nan nan nan nan nan nan nan nan nan nan nan nan nan nan
nan 6 6 6 6 6 6 6 6 5 5 5 5 5 5 5 5 5 5 5 5 5 6 6 6 6 6 6 5 5 5 5 6 6 6 5 4 3 2 2 2 2 3 3 3 4 4 6 7 7 6 6 6 5 4 3 5 6 7 8 9 10 8 7 7 6 6 5 5 5 4 5 5 5 6 6 6 6 5 5 6 6 6 6 6 6 6 5 5 5 5 4 4 4 5 5 5 5 5 5 5 6 nan
nan 5 5 5 5 6 6 5 5 5 4 4 4 4 5 5 5 6 6 6 6 6 6 6 7 6 6 5 5 5 5 5 6 6 6 5 4 3 2 1 2 3 3 3 3 3 1 4 5 4 4 6 7 7 6 4 4 6 7 8 10 11 8 7 6 6 6 6 5 5 5 4 5 5 5 6 6 6 6 5 6 6 6 5 6 6 6 6 6 6 5 5 5 5 5 5 5 5 5 5 5 5 nan
nan 5 5 5 5 5 5 5 5 4 4 4 4 4 5 5 6 6 7 7 7 7 6 6 6 6 5 5 5 5 5 5 6 6 6 5 4 3 2 1 2 3 4 4 3 2 -0 1 3 4 4 4 5 4 4 4 5 6 6 7 9 10 8 7 6 7 6 6 6 5 5 5 5 5 5 5 6 6 6 6 6 5 5 5 5 5 6 6 6 6 6 6 6 6 5 5 5 5 5 5 5 4 nan
nan 4 4 5 5 5 5 5 5 4 4 4 4 5 5 5 6 7 8 8 8 7 7 6 6 6 6 5 5 5 5 5 6 6 6 5 4 3 2 2 2 3 3 4 3 3 4 4 4 3 3 3 2 2 3 4 6 7 7 9 9 8 7 6 6 6 7 6 6 6 5 5 5 5 5 5 5 6 6 6 6 5 5 5 5 5 5 5 5 6 6 6 6 6 6 6 6 6 6 6 5 5 nan
nan 4 4 4 4 5 5 5 5 4 4 4 5 5 5 6 7 8 8 8 8 7 7 6 6 6 6 5 5 5 5 5 5 5 5 5 4 3 2 2 3 4 4 4 4 4 5 6 5 4 3 3 3 4 4 5 6 7 9 11 9 7 5 5 6 6 6 6 6 6 6 6 6 5 5 5 5 6 6 6 6 6 5 5 5 5 5 5 5 5 6 6 6 6 6 7 7 7 7 7 6 6 nan
nan 4 4 4 4 5 5 5 5 5 4 4 5 5 6 7 7 8 8 8 8 7 7 6 6 5 5 5 5 5 5 5 6 5 5 5 4 3 3 3 4 4 4 4 4 4 5 6 6 6 5 3 4 6 5 6 7 8 10 13 11 7 4 4 5 5 5 6 6 6 7 6 6 6 5 5 5 5 6 7 6 6 6 6 5 5 5 5 5 5 5 6 6 6 6 6 6 7 7 7 7 7 nan
nan 4 3 3 4 5 6 6 5 5 4 5 5 6 6 7 7 8 8 8 8 7 7 6 6 5 5 4 4 4 5 6 6 6 6 5 4 4 4 4 4 4 4 4 4 5 6 5 5 5 4 4 5 6 6 5 6 7 10 13 11 7 5 5 4 4 5 5 6 6 6 6 6 6 6 5 5 5 6 7 7 6 6 6 6 5 5 5 5 5 5 5 6 6 6 6 6 6 6 6 6 6 nan
nan 3 3 3 5 6 6 6 5 5 5 5 5 6 7 7 7 8 8 8 8 7 7 6 5 5 4 4 4 4 5 6 6 6 6 5 4 4 4 5 5 4 4 4 4 5 5 4 4 4 4 6 5 5 5 4 4 6 9 11 10 8 6 6 5 4 4 4 5 5 6 6 6 6 5 5 5 5 6 7 7 7 6 6 5 5 5 6 6 6 6 6 6 6 6 6 5 5 5 5 5 6 nan
nan 3 3 4 6 7 7 6 5 5 5 5 6 6 6 7 8 8 8 8 8 7 7 6 5 5 4 4 4 5 5 6 6 7 6 5 4 4 4 5 4 4 4 4 4 5 5 5 6 6 5 5 4 3 4 4 4 6 7 9 9 8 7 7 6 5 5 4 4 4 4 5 5 6 5 5 5 5 5 6 7 7 7 6 5 5 5 6 6 6 7 7 6 6 6 6 6 6 5 5 6 6 nan
nan 3 4 5 6 7 7 6 5 5 5 5 6 6 6 7 8 8 8 9 8 8 7 6 6 5 5 5 5 5 6 6 6 7 6 5 4 4 4 4 4 4 4 4 4 4 3 6 6 5 5 5 4 3 4 5 5 6 7 8 8 7 7 7 7 6 5 5 4 4 4 5 5 5 6 5 5 4 4 6 7 7 7 7 6 6 5 6 6 6 7 7 7 7 7 7 7 7 6 6 6 6 nan
nan 4 4 5 5 6 6 6 5 5 5 5 6 6 6 7 8 8 9 9 9 8 8 7 6 5 5 5 5 5 6 6 6 6 5 5 4 4 4 4 5 5 5 4 3 1 0 4 5 5 6 4 3 4 4 5 6 7 10 9 7 6 6 7 7 6 6 5 5 4 4 5 5 5 6 5 5 5 4 5 6 7 8 8 7 7 6 6 6 6 6 6 6 7 7 8 8 8 7 7 7 7 nan
nan 4 3 4 5 6 6 6 6 5 5 5 6 6 6 7 8 8 9 9 9 9 8 7 6 6 6 5 5 6 6 6 6 6 5 5 4 4 4 4 5 5 4 2 -0 -2 1 4 5 5 5 3 3 4 5 6 6 8 11 8 7 6 6 6 6 6 6 5 5 5 5 5 5 5 5 6 5 5 4 4 5 6 7 7 7 7 7 6 6 6 6 5 5 6 7 8 9 9 8 7 7 8 nan
nan 2 3 5 6 6 6 6 6 6 5 5 5 6 6 7 7 8 9 9 9 9 8 7 7 6 6 6 6 6 6 6 6 6 5 5 4 4 4 5 4 4 3 -1 -2 -0 5 6 5 3 3 4 4 4 5 5 7 9 11 6 5 6 6 6 6 6 6 5 5 5 5 4 5 5 5 5 5 5 5 4 4 5 5 6 6 7 7 6 6 6 6 5 5 5 5 7 8 9 8 8 7 8 nan
nan 4 6 8 8 7 7 7 7 6 5 5 5 6 7 7 7 8 8 9 9 9 8 8 7 7 7 6 6 6 6 6 6 6 5 5 5 5 5 5 4 3 -0 -2 1 5 7 6 4 3 3 4 4 4 5 5 8 11 9 6 5 5 6 6 6 6 6 6 5 5 5 4 4 4 5 5 5 5 5 5 5 4 4 5 5 5 5 6 6 6 6 5 5 4 5 5 6 7 8 7 7 7 nan
nan 8 10 10 9 8 8 8 7 6 5 5 6 6 7 7 7 7 7 8 8 8 8 8 8 8 8 8 7 5 4 5 5 5 6 6 5 5 5 4 3 1 -2 2 6 8 8 5 4 4 4 5 5 5 5 6 7 10 7 5 5 5 5 6 6 6 6 6 6 5 5 4 4 4 4 5 5 5 5 5 5 5 4 4 4 4 4 4 5 5 5 5 5 5 5 5 5 6 6 7 6 6 nan
nan 10 11 10 9 9 9 8 7 6 5 5 6 7 7 7 6 6 6 7 7 8 8 8 8 8 8 8 6 3 2 3 2 2 4 5 6 5 5 3 1 1 2 5 7 7 6 4 4 5 5 5 5 5 6 7 7 8 5 5 5 5 5 5 6 6 6 6 6 6 5 5 5 4 4 4 5 5 5 5 5 5 5 5 5 4 4 4 4 4 5 5 6 6 5 5 5 5 6 6 6 5 nan
nan 10 10 10 10 9 9 8 7 6 6 6 7 7 7 6 6 5 6 6 7 7 8 8 7 7 6 5 4 3 4 3 2 2 1 2 3 3 2 1 1 2 5 6 7 7 5 4 4 6 6 4 4 5 6 6 6 7 6 6 5 4 4 5 5 5 6 6 6 6 6 5 5 5 4 4 4 5 5 5 5 5 5 5 5 5 5 5 5 5 5 6 6 6 6 6 6 5 5 5 5 5 nan
nan 9 9 9 9 9 8 8 7 7 6 6 6 7 7 6 5 5 6 7 7 7 7 6 5 4 4 2 2 3 6 6 5 4 2 0 -0 0 1 2 3 4 6 7 7 6 5 5 5 5 5 4 4 6 6 5 5 7 7 7 5 4 4 4 4 5 5 6 6 6 6 6 6 5 5 4 4 4 5 5 5 5 5 6 6 6 6 6 5 5 6 6 6 6 7 7 6 6 6 6 5 5 nan
nan 4 5 6 7 7 6 6 6 5 5 5 4 4 3 2 3 4 6 5 5 5 5 3 1 -0 0 1 3 6 7 6 6 5 5 3 2 2 3 4 5 6 7 8 7 5 5 5 5 5 4 4 5 6 6 5 5 7 9 9 5 4 4 4 4 4 4 5 6 6 6 6 6 6 5 5 4 4 4 5 5 5 5 5 6 6 6 6 6 5 6 6 7 7 7 7 7 7 7 6 6 6 nan
nan 1 1 1 1 2 2 2 1 1 1 3 2 1 -1 -2 -1 0 1 0 -0 1 1 -0 -2 -1 -0 4 7 8 7 6 6 5 6 6 6 5 6 6 7 7 7 7 6 5 5 6 6 5 4 4 5 6 6 4 4 7 11 10 6 5 4 3 3 3 4 5 5 6 6 6 6 6 5 5 5 4 4 4 5 5 5 5 5 6 6 6 6 5 5 6 6 7 7 7 7 7 7 7 6 6 nan
nan 4 2 0 -1 -1 0 0 -1 -1 0 1 2 1 -1 -2 -1 -1 -2 -3 -3 -2 -2 -2 0 2 3 6 7 7 6 6 6 6 6 7 7 7 7 7 7 7 7 6 5 5 5 6 6 6 5 4 5 6 5 3 5 7 10 10 8 6 4 3 3 3 4 4 5 5 5 6 6 6 6 5 5 5 4 4 5 5 5 5 5 6 6 6 6 5 5 5 6 6 7 7 7 7 7 7 7 6 nan
nan 7 5 3 2 2 3 3 2 2 2 1 3 3 2 3 3 2 0 0 -0 -0 -0 1 3 4 5 6 6 6 7 8 8 7 7 7 7 7 8 8 8 7 7 6 6 6 6 6 6 6 6 5 5 6 4 3 5 6 9 11 10 8 4 3 3 3 3 4 4 5 5 5 6 6 6 5 5 5 4 4 5 5 5 5 5 5 6 6 5 5 5 5 5 6 6 7 6 6 7 7 7 7 nan
nan 7 5 5 4 5 5 5 5 5 4 3 3 4 5 6 6 4 3 3 3 3 3 3 4 5 7 7 7 7 8 9 9 9 8 8 8 8 8 8 8 7 7 6 5 5 5 6 6 6 6 5 5 6 4 3 4 5 7 11 11 9 6 3 3 3 3 4 4 4 5 5 5 6 6 6 5 5 5 4 4 5 5 5 5 5 5 5 5 5 5 4 5 5 6 6 6 6 6 6 7 6 nan
nan 6 5 5 6 6 6 6 5 5 5 5 5 6 7 6 6 5 4 4 4 4 3 4 5 7 8 8 7 7 7 7 8 9 9 9 8 8 8 8 8 8 7 7 6 5 5 5 6 6 6 5 5 6 4 3 3 4 6 9 11 10 8 6 4 3 3 3 4 4 4 5 5 5 5 5 5 5 5 5 4 4 5 5 5 5 5 5 5 5 4 4 4 5 5 5 6 5 5 6 6 6 nan
nan 6 6 6 6 6 6 6 6 6 6 6 6 8 7 5 4 5 5 5 5 5 5 6 8 8 8 7 7 7 6 6 6 7 8 8 8 7 7 7 8 8 8 7 6 6 6 6 6 6 6 5 6 6 5 3 3 4 5 7 9 10 10 8 6 4 4 3 4 4 4 5 5 5 5 5 5 5 5 5 5 4 4 4 5 5 5 5 5 5 4 4 4 4 5 5 5 5 5 5 5 5 nan
nan 7 7 6 6 6 6 6 6 6 6 6 7 9 7 5 4 5 6 6 6 5 6 7 7 6 6 6 6 6 6 6 6 5 6 6 6 7 7 7 7 8 9 8 7 6 6 6 6 6 6 5 6 6 5 4 4 4 5 6 8 9 10 9 8 7 5 4 4 4 4 4 4 4 4 5 5 5 5 5 5 5 4 4 4 5 5 5 5 5 4 4 4 4 4 4 4 5 5 4 4 4 nan
nan 7 7 6 5 5 5 6 6 6 6 7 7 8 7 6 5 6 6 6 6 6 7 7 6 5 6 5 6 5 5 6 6 6 5 5 6 7 7 7 7 7 8 8 8 7 6 6 6 5 5 5 6 6 6 5 5 4 4 6 7 8 9 8 8 8 7 6 5 5 4 4 4 4 4 5 5 5 6 5 5 5 4 4 4 4 4 5 5 5 4 4 4 4 4 4 4 4 4 4 4 4 nan
nan 6 6 6 5 5 5 6 6 6 7 6 6 6 7 6 6 5 6 6 6 7 7 6 6 7 7 7 6 6 6 6 7 6 5 6 7 8 7 7 7 7 8 8 9 8 7 7 6 5 5 5 5 6 6 6 4 4 5 5 6 7 8 8 8 8 7 6 5 5 5 5 5 4 4 4 5 5 5 5 5 5 5 4 4 4 4 4 4 5 5 4 4 4 3 3 3 3 3 3 4 4 nan
nan 5 6 7 6 6 6 6 6 7 7 6 6 6 7 6 6 6 6 6 7 7 7 6 6 7 7 8 8 8 7 7 6 6 6 7 8 9 7 7 8 8 8 8 8 9 10 8 7 6 6 7 6 5 6 6 5 5 5 5 5 6 8 8 8 8 7 6 5 5 5 6 5 4 4 4 4 4 5 5 5 5 5 4 4 4 4 4 4 4 4 4 4 4 3 3 3 3 3 3 3 3 nan
nan 5 6 6 6 6 7 6 6 6 7 7 7 7 7 7 7 7 7 7 7 6 6 6 6 7 7 7 7 7 8 7 7 7 7 7 8 8 8 7 8 8 8 8 8 9 11 11 9 7 7 7 6 6 6 7 7 6 5 5 5 6 7 7 8 8 8 7 5 5 5 7 6 6 6 4 4 4 4 5 4 4 5 4 4 4 4 3 3 3 4 4 4 4 3 3 3 3 3 3 3 3 nan
nan 6 6 6 6 6 7 6 6 6 7 7 7 7 8 8 7 7 7 8 8 7 7 8 8 8 8 7 7 7 8 8 8 7 7 6 7 7 8 8 8 8 8 8 8 8 9 11 10 8 7 6 5 6 6 7 7 6 6 6 6 6 6 7 7 8 8 8 7 6 6 6 6 7 7 6 5 5 5 4 4 4 4 4 4 4 4 4 3 3 3 4 4 4 4 3 3 3 3 3 3 3 nan
nan 6 6 6 7 7 6 6 5 7 7 7 7 7 8 8 8 8 8 8 9 10 10 10 10 9 9 8 8 7 7 8 8 8 7 6 7 7 8 8 8 8 8 8 8 8 8 9 10 8 8 7 5 5 5 6 7 8 8 7 7 7 7 6 7 7 8 8 8 7 6 5 5 6 6 6 5 5 5 6 5 4 4 4 5 4 4 4 4 3 3 3 4 4 4 3 3 3 3 3 3 3 nan
nan 6 7 6 6 7 6 6 6 7 7 7 8 8 9 8 8 8 9 9 9 10 10 10 9 9 9 8 7 6 7 8 8 8 7 7 7 7 8 8 7 8 8 8 8 8 8 9 9 9 9 8 7 6 5 6 7 8 9 9 7 7 6 7 7 7 7 8 8 8 7 6 5 5 5 6 6 5 6 7 5 3 3 4 5 5 5 5 4 4 4 4 5 4 4 4 3 3 4 4 4 4 nan
nan 7 7 7 6 6 7 6 6 7 7 7 8 9 10 8 7 7 7 6 6 7 7 8 7 7 7 6 6 6 6 7 8 8 8 7 7 7 7 7 7 8 7 7 8 8 8 8 9 10 9 9 8 8 7 7 7 7 8 9 9 8 8 8 8 8 7 8 8 8 8 7 6 5 5 5 5 5 6 6 5 4 3 4 5 6 6 5 5 5 5 5 5 5 5 4 3 3 4 4 5 4 nan
nan 7 7 7 6 6 7 7 7 8 7 7 7 9 8 5 5 5 5 5 5 5 6 6 6 6 6 6 6 6 6 6 7 7 7 7 7 7 7 7 7 7 7 8 8 8 7 8 8 9 9 10 9 9 8 8 7 7 8 10 10 11 10 10 10 9 8 8 8 9 8 8 7 6 5 5 5 4 5 6 5 5 4 3 4 5 6 6 6 7 7 7 6 6 5 4 4 4 4 5 5 5 nan
nan 6 6 7 7 6 7 7 8 8 7 6 6 7 5 5 5 6 6 6 6 5 5 5 6 6 7 7 7 7 7 7 6 7 6 7 7 7 8 8 8 7 7 8 8 8 8 8 8 8 8 9 9 9 9 9 8 7 7 9 10 10 11 11 11 10 10 9 8 8 8 9 8 8 6 6 5 5 5 5 6 5 5 4 3 4 5 6 7 8 9 9 8 8 7 5 4 5 5 5 5 6 nan
nan 6 6 7 7 6 6 7 8 8 7 6 6 6 5 6 6 7 7 7 6 5 5 5 5 6 7 8 8 8 8 7 7 6 6 6 6 7 9 9 9 8 8 8 8 8 8 8 8 8 8 8 8 8 9 9 9 7 7 8 8 9 9 9 9 10 11 11 10 9 8 9 9 8 8 7 6 6 6 6 6 6 5 5 4 3 4 5 6 8 11 11 11 9 7 5 5 5 6 7 6 5 nan
nan 5 6 7 7 6 6 8 9 7 6 6 6 7 7 6 6 7 7 7 6 6 5 5 5 4 6 7 8 8 8 8 7 7 6 6 6 7 9 9 9 9 9 9 8 8 8 8 8 8 8 8 9 9 8 8 8 8 7 8 8 8 8 9 9 9 10 11 12 11 10 9 8 8 8 7 7 7 6 6 6 6 6 6 5 4 3 4 5 7 10 11 11 10 7 6 6 7 9 8 6 5 nan
nan 6 7 7 7 7 8 9 9 6 5 6 7 8 7 6 6 6 7 7 7 7 7 6 4 4 5 6 6 7 7 8 8 7 7 7 7 7 8 8 8 8 8 8 8 8 8 8 8 8 8 9 9 10 9 9 9 8 7 7 7 7 7 8 9 8 8 9 11 13 13 10 9 9 8 8 8 7 7 7 7 7 8 7 6 5 4 3 3 4 6 8 10 10 9 8 10 11 11 10 8 6 nan
nan 6 7 7 7 8 10 9 7 5 5 6 7 7 7 6 6 7 7 6 6 7 9 7 6 5 5 6 6 6 6 7 8 7 7 7 7 7 7 8 8 8 8 7 7 7 8 9 9 9 9 10 9 9 8 9 9 8 8 7 7 7 6 7 7 7 7 8 9 11 13 13 11 10 9 9 9 8 8 8 8 9 9 8 7 6 5 4 3 3 3 4 6 7 9 11 13 14 14 12 10 8 nan
nan 6 6 7 8 9 10 9 6 5 6 6 7 7 7 7 7 8 8 6 5 6 8 9 8 7 6 6 6 6 5 5 7 8 7 7 7 7 7 7 7 8 8 8 7 7 8 9 10 10 10 10 9 8 8 8 8 8 8 8 8 8 7 6 7 7 7 7 7 9 11 13 12 11 10 10 10 10 9 10 10 9 9 8 7 7 6 5 4 4 4 4 4 4 6 9 11 14 15 13 11 11 nan
nan 7 6 7 8 10 10 8 6 5 6 7 7 7 7 7 8 9 9 8 6 5 7 9 9 8 7 6 6 6 5 5 6 7 8 8 7 7 7 7 8 8 8 8 7 7 8 9 9 9 9 9 8 8 8 7 8 8 8 10 11 11 9 7 6 7 7 6 6 7 9 11 13 12 11 11 11 11 11 10 10 9 8 7 7 6 6 5 5 5 5 4 4 4 5 6 8 10 13 12 12 12 nan
nan 8 7 7 8 10 10 8 6 6 6 7 8 7 7 8 8 8 8 8 7 5 6 8 9 9 8 6 6 6 6 6 7 8 9 9 9 8 8 9 9 9 8 8 8 8 8 9 9 9 8 7 8 9 9 8 8 8 9 10 11 12 11 9 7 6 7 6 6 7 7 8 10 12 12 12 12 11 11 10 9 8 8 7 7 6 6 6 6 6 6 6 6 6 6 6 7 8 10 12 12 12 nan
nan 8 8 8 9 10 10 7 5 5 7 8 8 8 7 8 7 7 7 7 7 6 5 6 8 9 9 8 8 8 8 9 9 10 10 9 9 9 9 9 9 9 8 8 9 9 8 9 9 8 7 7 8 9 10 11 10 10 9 9 9 11 11 9 8 7 7 7 7 8 8 7 7 9 11 12 12 12 12 11 10 9 8 8 8 8 8 8 8 8 8 8 8 8 7 7 7 8 9 10 11 12 nan
nan 7 8 9 9 10 10 7 5 5 7 8 8 8 7 7 7 7 6 6 7 7 5 5 6 8 9 9 9 10 10 11 11 10 9 8 9 9 8 9 9 9 9 9 9 9 9 9 9 8 8 7 8 9 10 11 11 11 9 9 9 10 10 10 9 8 8 8 8 9 9 8 7 7 9 11 11 12 13 12 11 10 9 9 9 10 10 10 11 10 10 10 9 9 9 9 8 8 8 9 10 12 nan
nan 7 8 9 9 9 9 7 4 5 7 8 8 7 6 5 6 7 6 6 7 8 7 5 4 5 7 8 8 9 11 11 11 9 7 6 7 8 8 9 10 10 10 9 9 9 10 9 9 9 9 8 8 9 9 10 10 9 9 10 10 10 9 9 10 9 9 9 9 9 9 9 9 7 7 9 9 10 11 13 13 12 11 11 11 11 11 12 12 12 11 11 11 11 11 10 9 8 8 9 10 14 nan
nan 6 9 10 9 8 8 7 5 6 7 7 8 8 6 5 6 7 6 5 7 9 10 9 6 4 5 5 6 7 9 10 9 8 6 5 5 6 8 9 11 11 11 11 10 10 10 9 9 9 10 10 10 10 10 10 10 9 9 9 9 9 9 9 9 9 10 9 9 9 8 8 9 8 7 8 8 9 10 11 13 13 13 12 12 11 11 12 12 11 11 11 12 12 12 12 11 9 8 8 9 15 nan
nan 5 9 11 10 7 8 8 6 6 6 7 8 10 10 8 7 7 6 6 7 9 11 11 10 8 5 4 6 7 8 9 8 7 5 5 5 7 7 8 9 10 11 11 11 11 10 10 10 10 10 10 10 10 11 11 10 9 9 9 9 9 10 9 10 10 9 9 9 9 8 8 8 8 8 8 8 8 9 9 10 12 12 12 11 11 12 10 10 11 11 11 12 12 13 13 12 11 9 8 8 15 nan
nan 5 7 9 10 7 8 9 6 5 6 6 8 9 11 10 10 10 9 7 5 5 6 9 12 12 8 6 7 9 10 8 8 6 6 9 9 9 8 8 8 9 9 10 10 10 10 11 11 11 11 10 10 10 10 11 10 9 9 8 8 9 10 10 10 10 10 10 10 10 9 8 8 9 9 8 8 8 8 8 8 9 10 11 12 12 12 12 11 11 11 11 12 12 13 13 12 12 10 9 10 14 nan
nan 6 6 6 8 8 9 9 6 5 7 8 9 9 11 11 9 9 10 9 5 3 1 3 8 12 13 10 9 11 11 9 7 4 5 10 11 11 10 8 7 7 9 10 11 10 9 9 9 10 10 10 9 9 10 11 11 10 9 8 8 8 9 10 10 10 10 10 10 11 10 9 8 8 9 8 7 7 8 7 8 8 9 10 11 11 12 13 13 13 11 11 11 12 13 13 12 11 11 10 11 13 nan
nan 5 6 5 7 8 10 10 7 5 6 7 9 9 10 11 7 6 9 11 8 5 0 -1 2 7 12 12 10 11 11 10 7 4 5 7 9 10 11 8 7 6 8 10 11 10 8 7 7 6 7 8 9 10 10 11 11 10 9 9 9 8 9 9 9 9 9 10 10 11 11 10 9 9 8 7 6 6 6 6 7 8 9 9 9 10 10 10 12 13 13 12 11 11 12 12 12 11 10 10 11 12 nan
nan 4 3 4 6 7 9 10 9 7 5 6 8 8 9 9 7 6 7 9 9 8 6 3 1 2 7 9 9 10 11 10 8 5 6 8 7 7 8 10 10 8 6 9 9 9 8 6 6 4 4 6 8 9 10 11 10 10 10 10 10 9 9 9 9 9 9 9 9 10 10 10 10 10 9 9 8 8 7 7 6 7 8 9 9 9 9 11 11 12 12 12 12 12 12 11 11 10 10 11 12 14 nan
nan 7 2 1 4 6 8 10 10 9 5 6 8 9 10 9 7 6 6 6 7 7 9 8 5 1 3 6 7 8 11 10 8 5 5 6 5 5 6 10 11 10 7 7 9 10 8 5 6 6 6 7 8 8 9 9 9 10 10 10 10 10 10 9 9 9 9 9 9 9 9 10 10 11 10 10 11 11 10 9 8 7 8 8 8 9 9 11 12 12 11 12 12 12 12 11 10 11 11 12 14 15 nan
nan 8 4 1 2 5 9 10 8 9 7 6 7 9 11 10 8 7 8 7 7 6 6 8 7 3 1 5 7 7 9 10 9 6 4 4 5 5 6 7 8 8 8 8 9 8 7 7 9 10 10 9 9 9 7 6 8 9 9 10 10 10 10 10 9 9 9 9 9 9 10 10 10 11 10 10 11 11 11 11 10 8 8 8 8 8 9 10 11 10 11 12 12 11 11 12 11 11 12 12 14 14 nan
nan 8 6 6 4 3 7 10 9 9 8 6 7 9 10 11 12 10 10 11 9 7 4 6 9 5 -0 4 7 7 7 9 9 9 6 4 5 7 7 6 4 4 6 8 9 8 7 8 11 13 12 8 8 9 6 5 7 9 9 9 9 10 10 10 9 9 9 9 9 9 10 10 11 11 11 10 11 11 11 11 10 10 9 8 8 9 10 9 9 9 10 11 11 12 12 12 12 12 12 11 11 11 nan
nan 11 9 8 7 4 4 8 10 9 8 7 7 8 9 11 12 12 11 11 10 9 5 5 10 9 3 2 6 8 6 7 9 10 8 6 4 4 5 7 6 5 5 8 9 10 9 9 8 9 9 8 8 8 7 7 7 8 9 8 8 9 10 10 10 10 9 9 9 9 10 10 10 11 11 10 10 11 11 10 10 10 10 9 8 9 10 10 9 8 9 10 11 12 13 12 12 11 11 9 9 8 nan
nan 12 12 9 9 6 3 5 9 9 9 9 8 8 9 10 10 11 12 11 10 11 8 4 8 11 9 4 6 8 7 6 7 9 10 9 8 6 5 5 6 9 11 12 12 12 10 8 8 7 8 8 8 8 8 7 8 8 8 8 8 9 9 9 10 10 10 9 9 9 9 9 9 10 10 10 10 10 10 10 10 10 10 9 8 9 10 11 9 8 9 9 10 12 13 13 11 10 9 8 7 7 nan
nan 10 11 10 10 7 4 5 7 8 9 9 8 8 9 9 9 9 11 12 12 12 8 3 5 8 11 8 6 7 7 7 6 7 9 11 12 11 9 5 5 7 10 11 12 13 10 7 7 8 9 9 8 7 5 7 7 7 7 7 8 8 8 8 9 9 9 9 9 9 9 9 9 9 9 10 9 9 10 10 10 10 9 9 9 9 10 10 9 9 9 10 10 12 12 11 11 9 8 7 7 7 nan
nan 8 11 12 10 7 5 6 7 7 8 9 8 8 9 8 8 8 9 12 12 12 8 5 5 6 10 10 7 6 8 8 7 7 6 7 11 14 13 10 8 7 6 5 7 11 10 8 9 10 9 9 8 7 5 6 5 6 5 6 8 9 9 8 8 8 9 9 9 9 9 8 8 9 9 9 9 9 10 10 9 9 9 8 9 10 10 10 9 10 9 9 11 13 12 11 10 8 7 7 7 6 nan
nan nan nan nan nan nan nan nan nan nan nan nan nan nan nan nan nan nan nan nan nan nan nan nan nan nan nan nan nan nan nan nan nan nan nan nan nan nan nan nan nan nan nan nan nan nan nan nan nan nan nan nan nan nan nan nan nan nan nan nan nan nan nan nan nan nan nan nan nan nan nan nan nan nan nan nan nan nan nan nan nan nan nan nan nan nan nan nan nan nan nan nan nan nan nan nan nan nan nan nan nan nan nan
CAPE
730 685 642 642 642 642 600 599 522 522 487 420 359 359 338 251 251 199 198 195 195 200 259 265 305 305 407 382 300 300 226 186 172 172 141 150 150 160 170 112 112 50 22 8 0 0 nan nan nan nan nan nan nan nan nan nan nan nan 0 3 3 16 21 32 33 33 31 37 43 43 42 39 36 36 35 36 36 42 56 83 83 118 175 241 289 289 226 146 107 107 98 115 119 119 106 95 95 71 84 118 118 188 295
664 620 580 581 580 580 576 535 498 498 429 399 309 309 261 213 213 165 167 189 189 219 277 314 385 385 394 311 212 212 151 182 168 168 137 117 117 127 135 83 83 33 14 3 nan nan nan nan nan nan nan nan nan nan nan nan nan 0 1 4 4 15 20 34 30 30 25 26 28 28 35 34 30 30 29 30 30 29 38 50 50 67 85 139 176 176 144 113 88 88 69 61 75 75 55 48 48 44 50 57 57 83 164
601 558 557 559 558 558 514 475 440 440 410 314 264 264 197 154 154 157 184 209 209 265 296 367 407 407 322 225 163 163 150 202 185 185 134 102 102 97 92 56 56 24 9 1 nan nan nan nan nan nan nan nan nan nan nan nan nan 0 2 7 7 15 19 31 28 28 22 19 20 20 25 24 22 22 21 18 18 14 22 34 34 44 47 61 83 83 88 89 67 67 49 43 45 45 41 37 37 34 35 40 40 46 60
504 499 499 537 498 498 456 420 387 387 358 269 175 175 139 122 122 147 198 254 254 313 380 387 398 398 236 153 162 162 215 273 254 254 166 87 87 73 78 43 43 24 8 nan nan nan nan nan nan nan nan nan nan nan nan 0 0 0 1 8 8 10 16 27 27 27 21 16 15 15 14 12 15 15 12 8 8 4 6 16 16 27 34 39 40 40 45 55 58 58 47 39 37 37 34 30 30 27 27 25 25 31 36
410 442 442 480 476 476 437 402 371 371 280 181 122 122 108 111 111 184 239 300 300 333 403 381 330 330 140 130 182 182 288 324 333 333 207 110 110 74 62 41 41 18 5 nan nan nan nan nan nan nan nan nan nan nan nan 0 0 0 0 9 9 10 15 21 26 26 21 17 10 10 7 5 5 5 3 1 1 0 0 0 0 9 19 24 25 25 28 33 37 37 38 39 34 34 36 32 32 29 25 18 18 18 21
355 388 424 461 421 421 385 387 325 325 243 152 73 73 77 122 122 223 282 318 318 387 428 404 268 268 116 124 198 198 309 318 354 354 248 133 133 74 63 35 35 15 2 nan nan nan nan nan nan nan nan nan nan nan nan nan nan nan nan 11 11 10 15 16 19 19 18 15 9 9 4 2 0 0 nan nan nan nan nan nan nan nan 3 12 17 17 19 18 22 22 25 31 33 33 35 30 30 30 23 14 14 12 8
275 338 373 408 372 372 371 341 284 284 211 101 66 66 88 133 133 211 300 368 368 443 451 393 234 234 128 135 210 210 296 332 307 307 209 127 127 90 54 26 26 10 0 nan nan nan nan nan nan nan nan nan nan nan nan nan nan nan nan 7 7 13 16 13 13 13 12 14 11 11 4 0 nan nan nan nan nan nan nan nan nan nan nan 1 3 3 4 7 8 8 8 17 23 23 24 28 28 29 21 16 16 9 4
259 323 359 360 327 327 328 301 222 222 133 74 57 57 99 170 170 253 288 389 389 466 474 384 225 225 138 144 219 219 277 280 261 261 175 120 120 76 40 20 20 6 nan nan nan nan nan nan nan nan nan nan nan nan nan nan nan nan nan 3 3 15 17 11 7 7 6 7 7 7 6 0 nan nan nan nan nan nan nan 0 0 nan nan nan 0 0 0 0 2 2 4 7 12 12 12 15 15 17 13 8 8 8 3
219 280 346 347 316 316 319 265 193 193 105 33 50 50 110 160 160 215 307 412 412 491 501 407 265 265 168 173 227 227 256 263 220 220 146 100 100 62 35 16 16 5 0 nan nan nan nan nan nan nan nan nan nan nan nan nan nan nan nan 0 0 10 15 11 3 3 0 1 2 2 1 nan nan nan nan nan nan nan 3 1 1 1 0 0 nan nan nan nan nan nan 0 3 6 6 7 8 8 8 7 6 6 5 0
186 243 304 335 307 307 282 232 140 140 59 17 44 44 103 152 152 207 267 400 400 515 563 462 368 368 228 232 235 235 240 220 205 205 120 84 84 50 28 14 14 5 0 nan nan nan nan nan nan nan nan nan nan nan nan nan nan nan nan nan nan 5 10 10 3 3 nan nan nan nan nan nan nan nan nan nan nan nan 0 2 2 4 2 2 1 1 0 0 nan nan nan 1 2 2 4 5 5 3 3 3 3 2 0
158 212 296 326 300 300 276 202 112 112 37 12 39 39 77 146 146 200 258 356 356 466 548 520 454 454 325 298 273 273 252 207 153 153 114 78 78 41 24 12 12 3 0 nan nan nan nan nan nan nan nan nan nan nan nan nan nan nan nan nan nan nan 0 4 5 5 nan nan nan nan nan nan nan nan nan nan nan nan nan 4 4 6 5 5 4 4 4 2 1 1 0 0 1 1 3 1 1 1 0 1 1 2 3
134 235 318 320 295 295 244 172 86 86 19 10 35 35 56 118 118 145 197 285 285 419 535 543 511 511 406 343 260 260 215 177 130 130 95 55 55 32 18 9 9 2 nan nan nan nan nan nan nan nan nan nan nan nan nan nan nan nan nan nan nan nan nan 0 3 3 0 nan nan nan nan nan nan nan nan nan nan nan nan 2 2 4 7 8 7 7 7 4 3 3 1 0 2 2 3 3 3 2 1 2 2 3 11
113 231 259 207 263 263 239 167 81 81 17 9 20 20 38 75 75 119 144 249 249 375 450 492 494 494 424 330 278 278 207 152 124 124 78 43 43 25 15 5 5 1 nan nan nan nan nan nan nan nan nan nan nan nan nan nan nan nan nan nan nan nan nan nan nan nan 0 0 nan nan nan nan nan nan nan nan nan nan nan nan nan 3 4 7 8 8 8 7 4 4 1 nan 1 1 4 9 9 10 7 6 6 9 16
112 178 95 115 232 232 209 163 77 77 17 9 13 13 26 44 44 63 99 188 188 302 369 405 440 440 344 292 218 218 158 113 91 91 55 31 31 20 10 3 3 nan nan nan nan nan nan nan nan nan nan nan nan nan nan nan nan 0 0 nan nan nan nan nan nan nan nan nan nan nan nan nan nan nan nan nan nan nan nan nan nan nan 1 3 5 5 7 8 6 6 2 nan nan nan 3 11 11 17 14 14 14 19 21
24 14 1 46 155 155 180 158 94 94 27 11 12 12 21 34 34 48 61 111 111 205 292 323 361 361 279 233 148 148 104 72 57 57 36 24 24 14 5 1 1 nan nan nan nan nan nan nan nan nan nan nan nan nan nan nan nan 2 0 0 0 nan nan nan nan nan nan nan nan nan nan nan nan nan nan nan nan nan nan nan nan nan nan 0 2 2 4 4 5 5 3 nan nan nan nan 5 5 17 21 21 21 22 22
nan nan nan 24 75 75 132 133 92 92 41 21 19 19 25 24 24 24 30 55 55 105 174 232 239 239 222 138 82 82 41 51 31 31 24 16 16 8 2 nan nan nan nan nan nan nan nan nan nan nan nan nan nan nan nan nan nan 4 2 1 1 0 nan nan nan nan nan nan nan nan nan nan nan nan nan nan nan nan nan nan nan nan nan nan nan nan nan 0 2 2 2 0 nan nan nan 0 0 9 15 21 21 22 21
nan nan nan 17 61 61 111 131 110 110 57 34 30 30 23 15 15 11 11 19 19 54 89 131 119 119 67 31 28 28 12 18 19 19 13 6 6 1 nan nan nan nan nan nan nan nan nan nan nan nan nan nan nan nan nan nan nan 6 4 2 2 1 0 nan nan nan nan nan nan nan nan nan nan nan nan nan nan nan nan nan nan nan nan nan nan nan nan nan nan nan nan 0 nan nan nan nan nan 1 7 12 12 17 18
nan nan 3 8 49 49 111 110 91 91 59 36 30 30 17 10 10 2 3 10 10 18 24 24 14 14 6 2 0 0 13 2 9 9 1 0 0 nan nan nan nan nan nan nan nan nan nan nan nan nan nan nan nan nan nan 1 1 6 8 5 5 2 1 0 nan nan nan nan nan nan nan nan nan nan nan nan nan nan nan nan nan nan nan nan nan nan nan nan nan nan nan nan nan nan nan nan nan nan 2 4 4 8 10
nan nan 2 8 40 40 79 92 74 74 46 35 26 26 15 7 7 1 1 3 3 3 2 nan nan nan nan nan nan nan nan nan nan nan nan nan nan nan nan nan nan nan nan nan nan nan nan nan nan nan nan nan nan nan nan 0 0 4 11 8 8 5 3 1 0 0 nan nan nan nan nan nan nan nan nan nan nan nan nan nan nan nan nan nan nan nan nan nan nan nan nan nan nan nan nan nan nan nan nan 2 2 5 6
nan 27 16 20 36 36 33 37 24 24 19 13 2 2 9 8 8 4 0 nan nan nan nan nan nan nan nan nan nan nan nan nan nan nan nan nan nan nan nan nan nan nan nan nan nan nan nan nan nan nan nan nan nan nan nan 0 0 3 64 11 11 5 4 2 1 1 nan nan nan nan nan nan nan nan nan nan nan nan nan nan nan nan nan nan nan nan nan nan nan nan nan nan nan nan nan nan nan nan nan nan nan nan 0
12 39 60 94 55 55 51 34 23 23 14 nan nan nan 3 nan nan 0 nan nan nan nan nan nan nan nan nan nan nan nan nan nan nan nan nan nan nan nan nan nan nan nan nan nan nan nan nan nan nan nan nan nan nan nan nan nan nan 0 31 11 11 6 4 3 1 1 nan nan nan nan nan nan nan nan nan nan nan nan nan nan nan nan nan nan nan nan nan nan nan nan nan nan nan nan nan nan nan 0 1 0 0 nan nan
21 8 29 87 89 89 49 23 16 16 4 nan nan nan 0 nan nan nan nan nan nan nan nan nan nan nan nan nan nan nan nan nan nan nan nan nan nan nan nan nan nan nan nan nan nan nan nan nan nan nan nan nan nan nan nan nan nan nan 6 15 15 9 5 3 1 1 nan nan nan nan nan nan nan nan nan nan nan nan nan nan nan nan nan nan nan nan nan nan nan nan nan nan nan nan nan nan nan 0 4 3 3 1 nan
7 9 12 18 19 19 10 7 6 6 nan nan nan nan nan nan nan nan nan nan nan nan nan nan nan nan nan nan nan nan nan nan nan nan nan nan nan nan nan nan nan nan nan nan nan nan nan nan nan nan nan nan nan nan nan nan nan nan 0 49 49 11 6 4 1 1 nan nan nan nan nan nan nan nan nan nan nan nan nan nan nan nan nan nan nan nan nan nan nan nan nan nan nan nan nan nan nan nan 3 3 3 2 nan
10 8 4 3 5 5 0 1 nan nan nan nan nan nan nan nan nan nan nan nan nan nan nan nan nan nan nan nan nan nan nan nan nan nan nan nan nan nan nan nan nan nan nan nan nan nan nan nan nan nan nan nan nan nan nan nan nan nan nan 17 17 16 9 6 3 3 nan nan nan nan nan nan nan nan nan nan nan nan nan nan nan nan nan nan nan nan nan nan nan nan nan nan nan nan nan nan nan nan 0 2 2 1 nan
2 2 0 1 nan nan nan nan nan nan nan nan nan nan nan nan nan nan nan nan nan nan nan nan nan nan nan nan nan nan nan nan nan nan nan nan nan nan nan nan nan nan nan nan nan nan nan nan nan nan nan nan nan nan nan nan nan nan nan nan nan 32 19 10 5 5 1 nan nan nan nan nan nan nan nan nan nan nan nan nan nan nan nan nan nan nan nan nan nan nan nan nan nan nan nan nan nan nan nan 0 0 0 nan
0 nan 0 0 0 0 nan nan nan nan nan nan nan nan nan nan nan nan nan nan nan nan nan nan nan nan nan nan nan nan nan nan nan nan nan nan nan nan nan nan nan nan nan nan nan nan nan nan nan nan nan nan nan nan nan nan nan nan nan nan nan 6 64 21 13 13 8 1 nan nan nan nan nan nan nan nan nan nan nan nan nan nan nan nan nan nan nan nan nan nan nan nan nan nan nan nan nan nan nan nan nan nan nan
0 nan 1 0 nan nan 0 nan nan nan nan nan nan nan nan nan nan nan nan nan nan nan nan nan nan nan nan nan nan nan nan nan nan nan nan nan nan nan nan nan nan nan nan nan nan nan nan nan nan nan nan nan nan nan nan nan nan nan nan nan nan 0 61 87 20 20 18 8 4 4 0 nan nan nan nan nan nan nan nan nan nan nan nan nan nan nan nan nan nan nan nan nan nan nan nan nan nan nan nan nan nan nan nan
nan 0 1 1 nan nan 0 0 nan nan nan nan nan nan nan nan nan nan nan nan nan nan nan nan nan nan nan nan nan nan nan nan nan nan nan nan nan nan nan nan nan nan nan nan nan nan nan nan nan nan nan nan nan nan nan nan nan nan nan nan nan nan 3 106 178 178 35 19 13 13 7 0 nan nan nan nan nan nan nan nan nan nan nan nan nan nan nan nan nan nan nan nan nan nan nan nan nan nan nan nan nan nan nan
nan 1 1 nan nan nan nan 0 nan nan nan nan nan nan nan nan nan nan nan nan nan nan nan nan nan nan nan nan nan nan nan nan nan nan nan nan nan nan nan nan nan nan nan nan nan nan nan nan nan nan nan nan nan nan nan nan nan nan nan nan nan nan nan 35 133 133 99 44 20 20 16 10 1 1 nan nan nan nan nan nan nan nan nan nan nan nan nan nan nan nan nan nan nan nan nan nan nan nan nan nan nan nan nan
0 1 0 nan nan nan nan nan 0 0 0 0 nan nan nan nan nan nan nan nan nan nan nan nan nan nan nan nan nan nan nan nan nan nan nan nan nan nan nan nan nan nan nan nan nan nan nan nan nan nan nan nan nan nan nan nan nan nan nan nan nan nan nan 1 44 44 119 70 41 41 29 23 13 13 3 nan nan nan nan nan nan nan nan nan nan nan nan nan nan nan nan nan nan nan nan nan nan nan nan nan nan nan nan
1 1 0 nan nan nan nan nan 0 0 1 0 nan nan nan nan nan nan nan nan nan nan nan nan nan nan nan nan nan nan nan nan nan nan nan nan nan nan nan nan nan nan nan nan nan nan nan nan nan nan nan nan nan nan nan nan nan nan nan nan nan nan nan nan 6 6 36 70 92 92 88 37 24 24 15 7 7 4 1 nan nan nan nan nan nan nan nan nan nan nan nan nan nan nan nan nan nan nan nan nan nan nan nan
1 1 0 nan nan nan nan nan 0 0 1 nan nan nan nan nan nan nan nan nan nan nan nan nan nan nan nan nan nan nan nan nan nan nan nan nan nan nan nan nan nan nan nan nan nan nan nan nan nan nan nan nan nan nan nan nan nan nan nan nan nan nan nan nan nan nan 4 45 75 75 96 80 53 53 33 21 21 20 15 8 8 4 1 0 2 2 3 2 1 1 nan nan nan nan nan nan nan nan nan nan nan nan nan
1 0 0 nan nan nan nan 0 1 1 nan nan nan nan nan nan nan nan nan nan nan nan nan nan nan nan nan nan nan nan nan nan nan nan nan nan nan nan nan nan nan nan nan nan nan nan nan nan nan nan nan nan nan nan nan nan nan nan nan nan nan nan nan nan nan nan nan 12 46 46 69 89 91 91 65 56 56 42 29 21 21 17 17 11 8 8 8 7 6 6 3 nan nan nan nan nan nan nan nan nan nan nan nan
nan nan nan nan nan nan nan 0 nan nan nan nan nan nan nan nan nan nan nan nan nan nan nan nan nan nan nan nan nan nan nan nan nan nan nan nan nan nan nan nan nan nan nan nan nan nan nan nan nan nan nan nan nan nan nan nan nan nan nan nan nan nan nan nan nan nan nan nan 14 14 49 62 97 97 95 90 90 74 58 55 55 38 33 27 20 20 20 20 18 18 12 8 0 0 nan nan nan nan nan nan nan 2 1
nan nan nan nan 0 0 0 0 nan nan nan nan nan nan nan nan nan nan nan nan nan nan nan nan nan nan nan nan nan nan nan nan nan nan nan nan nan nan nan nan nan nan nan nan nan nan nan nan nan nan nan nan nan nan nan nan nan nan nan nan nan nan nan nan nan nan nan nan nan nan 23 52 80 80 104 117 117 119 94 84 84 72 59 40 31 31 32 33 34 34 34 31 28 28 8 2 2 1 0 0 0 2 4
0 0 nan 0 0 0 0 nan nan nan nan nan nan nan nan nan nan nan nan nan nan nan nan nan nan nan nan nan nan nan nan nan nan nan nan nan nan nan nan nan nan nan nan nan nan nan nan nan nan nan nan nan nan nan nan nan nan nan nan nan nan nan nan nan nan nan nan nan nan nan 1 31 53 53 80 115 115 135 137 118 118 119 105 87 56 56 47 46 55 55 68 62 54 54 38 23 23 7 4 4 4 1 6
1 0 0 0 nan nan nan nan nan nan nan nan nan nan nan nan nan nan nan nan nan nan nan nan nan nan nan nan nan nan nan nan nan nan nan nan nan nan nan nan nan nan nan nan nan nan nan nan nan nan nan nan nan nan nan nan nan nan nan nan nan nan nan nan nan nan nan nan nan nan nan 6 27 27 53 88 88 126 146 170 170 174 162 149 100 100 81 81 77 77 87 96 83 83 76 61 61 43 29 22 22 8 15
0 0 0 nan nan nan nan nan nan nan nan nan nan nan nan nan nan nan nan nan nan nan nan nan nan nan nan nan nan nan nan nan nan nan nan nan nan nan nan nan nan nan nan nan nan nan nan nan nan nan nan nan nan nan nan nan nan nan nan nan nan nan nan nan nan nan nan nan nan nan nan nan 1 1 22 38 38 70 115 157 157 180 194 213 194 194 147 122 123 123 126 141 136 136 143 141 141 122 88 62 62 60 55
0 nan nan nan nan nan nan nan nan nan nan nan nan nan nan nan nan nan nan nan nan nan nan nan nan nan nan nan nan nan nan nan nan nan nan nan nan nan nan nan nan nan nan nan nan nan nan nan nan nan nan nan nan nan nan nan nan nan nan nan nan nan nan nan nan nan nan nan nan nan nan nan nan nan nan 4 4 21 46 87 87 125 180 221 242 242 211 178 149 149 150 164 198 198 215 216 216 206 166 131 131 111 110
nan nan nan nan nan nan nan nan nan nan nan nan nan nan nan nan nan nan nan nan nan nan nan nan nan nan nan nan nan nan nan nan nan nan nan nan nan nan nan nan nan nan nan nan nan nan nan nan nan nan nan nan nan nan nan nan nan nan nan nan nan nan nan nan nan nan nan nan nan nan nan nan nan nan nan nan nan nan 9 25 25 64 116 170 223 223 244 224 201 201 192 202 225 225 249 271 271 270 246 204 204 173 152
nan nan nan nan nan nan nan nan nan nan nan nan nan nan nan nan nan nan nan nan nan nan nan nan nan nan nan nan nan nan nan nan nan nan nan nan nan nan nan nan nan nan nan nan nan nan nan nan nan nan nan nan nan nan nan nan nan nan nan nan nan nan nan nan nan nan nan nan nan nan nan nan nan nan nan nan nan nan nan 1 1 24 58 108 151 151 200 245 263 263 249 252 203 203 224 253 253 280 269 298 298 257 224
nan nan nan nan nan nan nan nan nan nan nan nan nan nan nan nan nan nan nan nan nan nan nan nan nan nan nan nan nan nan nan nan nan nan nan nan nan nan nan nan nan nan nan nan nan nan nan nan nan nan nan nan nan nan nan nan nan nan nan nan nan nan nan nan nan nan nan nan nan nan nan nan nan nan nan nan nan nan nan nan nan 8 30 46 75 75 112 156 193 193 218 243 245 245 217 201 201 237 273 321 321 313 275
nan nan nan nan nan nan nan nan nan nan nan nan nan nan nan nan nan nan nan nan nan nan nan nan nan nan nan nan nan nan nan nan nan nan nan nan nan nan nan nan nan nan nan nan nan nan nan nan nan nan nan nan nan nan nan nan nan nan nan nan nan nan nan nan nan nan nan nan nan nan nan nan nan nan nan nan nan nan nan nan nan nan nan nan nan nan 3 11 26 26 56 94 125 125 163 206 206 233 262 295 295 281 291
nan nan nan nan nan nan nan nan nan nan nan nan nan nan nan nan nan nan nan nan nan nan nan nan nan nan nan nan nan nan nan nan nan nan nan nan nan nan nan nan nan nan nan nan nan nan nan nan nan nan nan nan nan nan nan nan nan nan nan nan nan nan nan nan nan nan nan nan nan nan nan nan nan nan nan nan nan nan nan nan nan nan nan nan nan nan nan 2 8 8 24 43 75 75 105 153 153 206 241 270 270 273 301
nan nan nan nan nan nan nan nan nan nan nan nan nan nan nan nan nan nan nan nan nan nan nan nan nan nan nan nan nan nan nan nan nan nan nan nan nan nan nan nan nan nan nan nan nan nan nan nan nan nan nan nan nan nan nan nan nan nan nan nan nan nan nan nan nan nan nan nan nan nan nan nan nan nan nan nan nan nan nan nan nan nan nan nan nan nan nan 1 6 6 15 28 54 54 82 127 127 188 228 252 252 249 308
nan nan nan nan nan nan nan nan nan nan nan nan nan nan nan nan nan nan nan nan nan nan nan nan nan nan nan nan nan nan nan nan nan nan nan nan nan nan nan nan nan nan nan nan nan nan nan nan nan nan nan nan nan nan nan nan nan nan nan nan nan nan nan nan nan nan nan nan nan nan nan nan nan nan nan nan nan nan nan nan nan nan nan nan nan nan nan 0 4 4 9 21 43 43 77 114 114 160 214 222 222 232 283
nan nan nan nan nan nan nan nan nan nan nan nan nan nan nan nan nan nan nan nan nan nan nan nan nan nan nan nan nan nan nan nan nan nan nan nan nan nan nan nan nan nan nan nan nan nan nan nan nan nan nan nan nan nan nan nan nan nan nan nan nan nan nan nan nan nan nan nan nan nan nan nan nan nan nan nan nan nan nan nan nan nan nan nan nan nan nan nan nan nan 1 9 35 35 66 112 112 146 172 198 198 224 287
nan nan nan nan nan nan nan nan nan nan nan 0 0 0 nan nan nan nan nan nan nan nan nan nan nan nan nan nan nan nan nan nan nan nan nan nan nan nan nan nan nan nan nan nan nan nan nan nan nan nan nan nan nan nan nan nan nan nan nan nan nan nan nan nan nan nan nan nan nan nan nan nan nan nan nan nan nan nan nan nan nan nan nan nan nan nan nan nan nan nan nan 2 14 14 56 111 111 145 158 157 157 149 280
nan nan nan nan nan nan nan nan 0 0 1 2 4 4 3 0 0 nan nan nan nan nan nan nan nan nan nan nan nan nan nan nan nan nan nan 0 0 7 nan nan nan nan nan nan nan nan nan nan nan nan nan nan nan nan nan nan nan nan nan nan nan nan nan nan nan nan nan nan nan nan nan nan nan nan nan nan nan nan nan nan nan nan nan nan nan nan nan nan nan nan nan nan 3 3 40 100 100 132 158 133 133 106 186
7 5 1 0 2 2 nan nan 2 2 3 3 7 7 5 1 1 nan nan nan nan nan nan nan nan nan nan nan nan nan nan nan nan nan nan nan nan 19 26 4 4 nan nan nan nan nan nan nan nan nan nan nan nan nan nan nan nan nan nan nan nan nan nan nan nan nan nan nan nan nan nan nan nan nan nan nan nan nan nan nan nan nan nan nan nan nan nan nan nan nan nan nan nan nan 7 58 58 120 144 110 110 77 88
22 18 11 5 4 4 5 nan 6 6 6 4 7 7 2 nan nan nan nan nan nan nan nan nan nan nan nan nan nan nan nan nan nan nan 1 nan nan nan 11 11 11 35 0 nan nan nan nan nan nan nan nan nan nan nan nan nan nan nan nan nan nan nan nan nan nan nan nan nan nan nan nan nan nan nan nan nan nan nan nan nan nan nan nan nan nan nan nan nan nan nan nan nan nan nan nan 20 20 85 84 67 67 28 30
46 40 31 16 9 9 8 2 12 12 10 7 2 2 nan nan nan nan nan nan nan nan nan nan nan nan nan nan nan nan nan nan nan nan 0 nan nan nan nan 27 27 65 nan 5 32 32 nan nan nan nan nan nan nan nan nan nan nan nan nan nan nan nan nan nan nan nan nan nan nan nan nan nan nan nan nan nan nan nan nan nan nan nan nan nan nan nan nan nan nan nan nan nan nan nan nan 4 4 22 29 25 25 14 15
83 66 49 35 20 20 12 1 4 4 9 14 6 6 nan nan nan nan nan nan nan nan nan 0 nan nan nan nan nan nan nan nan nan nan nan nan nan nan nan 57 57 48 nan 13 67 67 39 0 nan nan nan nan nan nan nan nan nan nan nan nan nan nan nan nan nan nan nan nan nan nan nan nan nan nan nan nan nan nan nan nan nan nan nan nan nan nan nan nan nan nan nan nan nan nan nan nan nan nan 0 2 2 5 6
116 91 79 61 36 36 8 4 4 4 12 9 7 7 1 nan nan nan nan nan nan nan nan nan 2 2 nan nan nan nan nan nan nan nan nan nan nan 0 14 nan nan nan nan nan 76 76 59 nan nan nan nan nan nan nan nan nan nan nan nan nan nan nan nan nan nan nan nan nan nan nan nan nan nan nan nan nan nan nan nan nan nan nan nan nan nan nan nan nan nan nan nan nan nan nan nan nan nan nan nan nan nan nan nan
142 120 93 69 42 42 12 6 6 6 8 6 10 10 6 0 0 nan nan nan nan nan nan nan nan nan 4 nan nan nan nan nan nan nan nan nan nan 26 9 nan nan nan nan nan 61 61 76 nan nan nan nan nan nan nan nan nan nan nan nan nan nan nan nan nan nan nan nan nan nan nan nan nan nan nan nan nan nan nan nan nan nan nan nan nan nan nan nan nan nan nan nan nan nan nan nan nan nan nan nan nan nan nan nan
152 114 83 65 43 43 15 2 11 11 5 5 3 3 4 nan nan nan nan nan nan nan nan nan nan nan 10 5 nan nan nan nan nan nan nan nan nan 2 9 nan nan 0 78 33 35 35 38 nan nan nan 24 nan nan nan nan nan nan nan nan nan nan nan nan nan nan nan nan nan nan nan nan nan nan nan nan nan nan nan nan nan nan nan nan nan nan nan nan nan nan nan nan nan nan nan nan nan nan nan nan nan nan nan nan
129 96 78 55 34 34 10 nan 4 4 3 6 0 0 nan nan nan nan nan nan nan nan nan nan nan nan 3 16 3 3 nan nan nan nan nan nan nan nan nan 46 46 68 73 95 30 30 nan nan 101 101 99 nan nan nan nan nan nan nan nan nan nan nan nan nan nan nan nan nan nan nan nan nan nan nan nan nan nan nan nan nan nan nan nan nan nan nan nan nan nan nan nan nan nan nan nan nan nan nan nan nan nan nan nan
97 85 61 35 17 17 3 nan nan nan 0 nan nan nan nan nan nan nan nan nan nan nan nan nan nan nan 0 11 19 19 10 8 nan nan nan nan nan nan nan nan nan 0 52 79 26 26 nan nan 112 112 107 87 nan nan nan nan nan nan nan nan nan nan nan nan nan nan nan nan nan nan nan nan nan nan nan nan nan nan nan nan nan nan nan nan nan nan nan nan nan nan nan nan nan nan nan nan nan nan nan nan nan nan nan
91 78 44 22 6 6 nan nan nan nan nan nan nan nan nan nan nan nan nan nan nan nan nan nan 1 1 nan nan 7 7 20 28 nan nan nan nan nan nan nan nan nan nan nan nan 1 1 nan 16 94 94 49 199 264 264 nan nan nan nan nan nan nan nan nan nan nan nan nan nan nan nan nan nan nan nan nan nan nan nan nan nan nan nan nan nan nan nan nan nan nan nan nan nan nan nan nan nan nan nan nan nan nan nan nan
88 67 36 14 0 0 nan nan nan nan 1 0 nan nan nan nan nan nan nan nan nan nan nan nan 2 2 nan nan 7 7 27 25 nan nan nan nan nan nan nan nan nan nan nan nan nan nan 0 84 24 24 53 212 294 294 262 86 86 nan nan nan nan nan nan nan nan nan nan nan nan nan nan nan nan nan nan nan nan nan nan nan nan nan nan nan nan nan nan nan nan nan nan nan nan nan nan nan nan nan nan nan nan nan nan
88 58 31 7 0 0 0 nan nan nan nan nan nan nan nan nan nan nan nan nan nan nan nan 1 0 0 0 nan 5 5 24 45 1 1 29 38 38 nan nan nan nan nan nan nan nan nan nan 1 28 28 58 140 156 156 166 282 282 28 nan nan nan nan nan nan nan nan nan nan nan nan nan nan nan nan nan nan nan nan nan nan nan nan nan nan nan nan nan nan nan nan nan nan nan nan nan nan nan nan nan nan nan nan nan